This demonstration page uses our WeatherBlox Daily Observations layout. Learn more.

Left ArrowRight Arrow

Hourly Observations for April 7, 2015

Temp ( °F °C ) Dew Point ( °F °C ) Humidity (%) Winds ( mph kmh ) Pressure ( in mb ) Visibility ( mi km ) Precip ( " mm )
12:25 am 00:25 Cloudy 31 -0.6 30 -1.1 96 96 E 5 7 30.03 1017 10 16 N/A
12:53 am 00:53 Cloudy 31 -0.6 30 -1.1 96 96 N N/A 29.97 1015 10 16 N/A
1:34 am 01:34 Cloudy 30 -1 30 -1 100 100 N N/A 30.03 1017 10 16 N/A
1:53 am 01:53 Cloudy 31 -0.6 30 -1.1 96 96 N N/A 29.97 1015 10 16 N/A
2:42 am 02:42 Cloudy 30 -1 30 -1 100 100 N N/A 30.03 1017 9 14 N/A
2:53 am 02:53 Cloudy 31 -0.6 31 -0.6 100 100 N N/A 29.96 1015 9 14 N/A
3:53 am 03:53 Cloudy with Light Snow 31 -0.6 31 -0.6 100 100 N N/A 29.96 1015 3 4 N/A
3:58 am 03:58 Cloudy with Light Snow 30 -1 30 -1 100 100 N N/A 30.00 1016 3 5 N/A
4:07 am 04:07 Cloudy with Light Snow 31 -0.6 31 -0.6 100 100 N N/A 30.00 1016 4 6 N/A
4:22 am 04:22 Cloudy with Light Snow 30 -1 30 -1 100 100 N N/A 30.03 1017 3 4 N/A
4:36 am 04:36 Cloudy with Light Snow 30 -1 30 -1 100 100 N N/A 30.03 1017 3 4 N/A
4:53 am 04:53 Cloudy with Light Snow 31 -0.6 31 -0.6 100 100 N N/A 29.96 1015 2 3 0.01 0.25
5:00 am 05:00 Cloudy with Light Snow 30 -1 30 -1 100 100 N N/A 30.00 1016 3 5 N/A
5:26 am 05:26 Partly Cloudy with Mist and Fog 30 -1 30 -1 100 100 N N/A 30.00 1016 5 8 N/A
5:51 am 05:51 Clear with Mist and Fog 30 -1 30 -1 100 100 N N/A 30.00 1016 2 3 N/A
5:53 am 05:53 Clear with Mist and Fog 30 -1 30 -1 100 100 N N/A 30.00 1016 1 2 N/A
5:55 am 05:55 Mostly Cloudy with Mist and Fog 30 -1.1 30 -1.1 100 100 N N/A 30.00 1016 1 1 N/A
6:18 am 06:18 Mostly Cloudy with Freezing Fog 30 -1 30 -1 100 100 N N/A 30.00 1016 0 0 N/A
6:29 am 06:29 Cloudy with Freezing Fog 30 -1.1 30 -1.1 100 100 N N/A 30.00 1016 1 1 N/A
6:35 am 06:35 Cloudy with Mist and Fog 31 -0.6 30 -1.1 96 96 N N/A 30.00 1016 2 2 N/A
6:42 am 06:42 Cloudy with Mist and Fog 30 -1 30 -1 100 100 N N/A 30.00 1016 3 5 N/A
6:53 am 06:53 Cloudy with Mist and Fog 31 -0.6 31 -0.6 100 100 N N/A 29.97 1015 3 5 N/A
7:00 am 07:00 Cloudy with Mist and Fog 30 -1 30 -1 100 100 NNE 5 7 30.03 1017 3 5 N/A
7:04 am 07:04 Cloudy with Mist and Fog 30 -1 30 -1 100 100 NNE 5 7 30.03 1017 2 3 N/A
7:10 am 07:10 Cloudy with Mist and Fog 30 -1 30 -1 100 100 N N/A 30.03 1017 1 1 N/A
7:34 am 07:34 Cloudy with Mist and Fog 30 -1 30 -1 100 100 SSE 3 6 30.03 1017 2 2 N/A
7:42 am 07:42 Cloudy with Mist and Fog 30 -1 30 -1 100 100 ESE 3 6 30.03 1017 3 4 N/A
7:50 am 07:50 Cloudy with Mist and Fog 32 undefined 30 -1 93 93 N N/A 30.00 1016 3 5 N/A
7:53 am 07:53 Cloudy with Mist and Fog 32 undefined 32 undefined 100 100 N N/A 29.99 1016 4 6 N/A
8:08 am 08:08 Cloudy with Mist and Fog 32 undefined 30 -1 93 93 SW 6 9 30.00 1016 6 10 N/A
8:53 am 08:53 Cloudy 32 undefined 31 -0.6 96 96 W 10 17 30.00 1016 10 16 N/A
9:53 am 09:53 Cloudy 35 1.7 33 0.6 93 93 WSW 10 17 30.00 1016 10 16 N/A
10:26 am 10:26 Partly Cloudy 37 3 32 undefined 81 81 WSW 7 11 30.03 1017 10 16 N/A
10:53 am 10:53 Partly Cloudy 40 4.4 34 1.1 79 79 SW 8 13 29.99 1016 10 16 N/A
11:53 am 11:53 Mostly Sunny 45 7.2 31 -0.6 58 58 W 8 13 29.97 1015 10 16 N/A
12:53 pm 12:53 Mostly Sunny 48 8.9 26 -3.3 42 42 W 13 20 29.95 1014 10 16 N/A
1:53 pm 13:53 Mostly Cloudy 54 12.2 26 -3.3 34 34 WSW 15 24 29.93 1014 10 16 N/A
2:53 pm 14:53 Mostly Cloudy 53 11.7 24 -4.4 32 32 W 5 7 29.92 1013 10 16 N/A
3:53 pm 15:53 Sunny 53 11.7 21 -6.1 28 28 WNW 16 26 29.91 1013 10 16 N/A
4:53 pm 16:53 Mostly Sunny 56 13.3 22 -5.6 27 27 W 13 20 29.90 1012 10 16 N/A
5:53 pm 17:53 Mostly Sunny 55 12.8 21 -6.1 26 26 WSW 6 9 29.89 1012 10 16 N/A
6:53 pm 18:53 Sunny 54 12.2 22 -5.6 29 29 N 3 6 29.89 1012 10 16 N/A
7:53 pm 19:53 Sunny 47 8.3 24 -4.4 41 41 NE 7 11 29.91 1013 10 16 N/A
8:53 pm 20:53 Clear 43 6.1 29 -1.7 58 58 NE 14 22 29.93 1014 10 16 N/A
9:53 pm 21:53 Clear 41 5 33 0.6 73 73 ENE 17 28 29.94 1014 10 16 N/A
10:53 pm 22:53 Clear 37 2.8 32 undefined 82 82 ENE 9 15 29.94 1014 10 16 N/A
11:53 pm 23:53 Clear 36 2.2 32 undefined 86 86 E 12 19 29.94 1014 10 16 N/A

Powered by AerisWeather